Home   Weather   Port Hedland   Past weeks

Flag for Australia Past Weather in Port Hedland, Western Australia, Australia — Yesterday and Last 2 Weeks

Now
84 °F

Sunny.


Feels Like: 92 °F
Forecast: 81 / 89 °F
Wind: 21 mph from Northwest

Location: Port Hedland Pardoo

Current Time: Jan 19, 2017 at 6:57:41 pm

Latest Report: Jan 19, 2017 at 6:00 pm


Visibility: N/A

Pressure: 29.59 "Hg

Humidity: 74%

Dew Point: 75 °F

Location of Port HedlandLocation

Past Weather in Port Hedland — Graph

°F

Port Hedland Temperature Yesterday

Maximum temperature yesterday: 91 °F (at 11:00 am)
Minimum temperature yesterday: 81 °F (at 4:00 am)
Average temperature yesterday: 85 °F

High & Low Weather Summary for the Past Weeks

 TemperatureHumidityPressure
High109 °F (Jan 5, 10:30 am)100% (Jan 14, 4:00 am)29.77 "Hg (Jan 14, 4:00 am)
Low77 °F (Jan 14, 4:00 am)12% (Jan 5, 10:30 am)29.42 "Hg (Jan 6, 3:00 am)
Average86 °F75%29.61 "Hg
* Reported Jan 4 6:00 pm — Jan 19 6:00 pm, Port Hedland, Weather by CustomWeather, © 2017

Note: Actual official high and low records may vary slightly from our data, if they occured in-between our weather recording intervals... More about our weather records

Advertising

Port Hedland Weather History for the Previous 24 Hours

Scroll right to see more
 ConditionsComfort  
Time TempWeatherWind HumidityBarometerVisibility
6:00 pm
Thu, Jan 19
84 °FSunny.21 mph74%29.59 "HgN/A
5:30 pm84 °FSunny.22 mph74%29.56 "HgN/A
5:00 pm86 °FSunny.23 mph70%29.56 "HgN/A
4:30 pm86 °FSunny.22 mph66%29.56 "HgN/A
4:00 pm86 °FSunny.23 mph62%29.56 "HgN/A
3:30 pm86 °FSunny.23 mph66%29.59 "HgN/A
3:00 pm86 °FPartly sunny.24 mph62%29.59 "HgN/A
2:30 pm90 °FSunny.22 mph55%29.59 "HgN/A
2:00 pm91 °FPartly sunny.21 mph52%29.62 "HgN/A
1:30 pm91 °FPartly sunny.21 mph59%29.62 "HgN/A
1:00 pm91 °FPartly sunny.22 mph56%29.62 "HgN/A
12:30 pm93 °FPartly sunny.22 mph53%29.65 "HgN/A
12:00 pm91 °FPartly sunny.21 mph59%29.65 "HgN/A
11:30 am91 °FSunny.21 mph59%29.65 "Hg10 mi
11:00 am91 °FSunny.22 mph59%29.68 "Hg10 mi
10:30 am91 °FSunny.18 mph59%29.68 "Hg10 mi
10:00 am91 °FScattered clouds.18 mph59%29.68 "HgN/A
9:30 am91 °FScattered clouds.15 mph63%29.68 "HgN/A
9:00 am88 °FScattered clouds.9 mph66%29.68 "HgN/A
8:30 am86 °FScattered clouds.14 mph70%29.68 "HgN/A
8:00 am84 °FBroken clouds.14 mph74%29.68 "HgN/A
7:30 am84 °FBroken clouds.16 mph79%29.68 "HgN/A
7:00 am84 °FBroken clouds.15 mph84%29.68 "HgN/A
6:30 am82 °FBroken clouds.12 mph89%29.68 "HgN/A
6:00 am82 °FScattered clouds.12 mph84%29.68 "HgN/A
5:30 am82 °FPassing clouds.10 mph84%29.68 "HgN/A
5:00 am82 °FPassing clouds.10 mph84%29.68 "HgN/A
4:30 am82 °FPassing clouds.10 mph84%29.65 "HgN/A
4:00 am82 °FPassing clouds.9 mph89%29.68 "HgN/A
3:30 am82 °FPassing clouds.12 mph84%29.65 "HgN/A
3:00 am82 °FPassing clouds.13 mph89%29.65 "HgN/A
2:30 am82 °FPassing clouds.14 mph89%29.65 "HgN/A
2:00 am82 °FPassing clouds.10 mph89%29.65 "HgN/A
1:30 am81 °FPassing clouds.3 mph89%29.65 "HgN/A
1:00 am81 °FClear.5 mph89%29.68 "HgN/A
12:30 am81 °FClear.6 mph89%29.68 "HgN/A
12:00 am81 °FClear.6 mph89%29.71 "HgN/A
11:30 pm
Wed, Jan 18
81 °FClear.7 mph89%29.71 "HgN/A
11:00 pm81 °FClear.8 mph89%29.74 "HgN/A
10:30 pm81 °FClear.8 mph89%29.74 "HgN/A
10:00 pm81 °FOvercast.12 mph89%29.77 "HgN/A
9:30 pm82 °FPartly cloudy.14 mph84%29.77 "HgN/A
9:00 pm84 °FPartly cloudy.14 mph79%29.74 "HgN/A
8:30 pm84 °FPassing clouds.13 mph79%29.74 "HgN/A
8:00 pm84 °FPassing clouds.10 mph79%29.74 "HgN/A
7:30 pm84 °FClear.13 mph79%29.71 "HgN/A
7:00 pm84 °FClear.14 mph79%29.71 "HgN/A
6:30 pm84 °FSunny.17 mph79%29.68 "HgN/A
6:00 pm86 °FScattered clouds.16 mph75%29.68 "HgN/A
Weather by CustomWeather, © 2017

See weather overviewHow to use our weather pages